Terminal Aerodrome Forecast
Issued by NWS

Home | Current Version | Previous Version | Graphics & Text | Print | Product List | Glossary Off
Versions: 1 2 3 4 5 6 7 8 9 10 11 12 13 14 15 16 17 18 19 20 21 22 23 24 25 26 27 28

000
FTUS43 KDDC 192320
TAFHYS
TAF
KHYS 192320Z 2000/2024 19015KT P6SM SKC
     FM200100 18009KT P6SM SCT200=

USA.gov is the U.S. government's official web portal to all federal, state and local government web resources and services.